Wind_Speed
31 33 33 33 33 31 30 29 27 25 25 25 25 25 24 24 23 22 22 22 23 23 24 24 24 23 23 23 23 23 23 22 21 20 19 18 17 16 16 15 13 13 13 12 11 10 11 12 11 10 10 10 9 10 10 10 11 14 16 18 18 18 18 16 14 13 12 11 10 9 9 8 9 10 11 11 10 9 8 8 9 10 9 9 9
32 33 33 33 32 31 30 29 26 25 25 25 25 24 24 24 23 22 22 22 23 24 24 24 24 23 23 23 23 23 22 22 21 20 19 18 17 16 15 15 13 13 13 13 11 10 11 11 11 10 10 10 10 10 10 10 12 14 15 17 18 18 18 16 15 14 13 12 11 10 9 9 9 10 11 11 10 9 8 8 9 9 9 9 9
32 33 33 33 32 30 29 27 25 25 24 24 24 24 24 23 22 22 22 23 23 24 24 24 24 23 23 23 23 22 22 21 21 20 19 18 17 15 15 14 13 13 13 13 12 11 11 11 11 10 10 10 10 10 11 11 12 14 15 16 17 18 18 17 17 15 14 12 12 11 10 10 9 10 11 11 11 10 9 8 8 9 9 9 9
30 31 32 32 30 29 27 26 24 24 24 24 24 24 24 23 22 22 23 23 24 24 25 24 24 23 23 23 22 22 21 21 20 19 19 19 18 16 15 14 14 13 13 13 12 12 12 12 11 9 9 10 10 11 11 11 12 13 14 15 17 18 18 18 17 16 14 13 12 11 11 10 10 10 11 11 11 10 10 8 8 9 9 9 9
28 29 30 30 29 28 27 25 24 24 24 24 24 24 23 22 21 22 22 23 24 25 25 25 24 23 23 22 22 22 21 20 19 19 19 18 18 16 15 14 14 13 13 13 13 12 13 12 11 9 9 9 10 11 11 12 13 13 13 14 17 18 19 19 18 17 15 14 12 12 11 11 11 11 11 11 11 11 10 9 9 9 9 9 9
29 29 29 29 29 28 26 25 24 24 24 24 23 22 22 21 21 21 22 23 24 25 25 25 24 23 23 22 22 22 21 20 19 18 18 18 18 17 15 14 14 13 13 14 13 13 13 13 12 10 9 9 9 10 12 13 13 12 13 14 16 18 19 19 18 17 16 14 13 12 12 12 11 11 10 11 11 11 11 10 10 10 9 9 9
31 29 29 29 29 27 26 25 24 24 24 24 23 22 22 21 22 22 23 24 25 25 26 25 25 24 23 22 22 21 21 20 19 18 18 17 17 17 16 14 14 13 13 14 14 14 13 13 12 11 10 10 9 10 12 14 13 13 13 14 16 18 19 19 18 17 16 15 14 14 14 13 12 11 10 11 11 11 11 11 10 10 10 9 9
33 30 28 28 28 26 25 24 24 24 24 24 23 23 23 22 22 23 23 24 24 25 25 25 24 23 22 22 22 22 21 20 19 19 18 17 17 16 16 15 14 13 13 13 14 15 14 13 13 12 12 11 10 11 12 13 14 14 14 14 16 18 19 19 18 17 16 16 16 16 15 13 12 11 11 11 11 12 12 12 11 11 11 10 9
34 30 28 27 26 25 24 24 24 24 24 24 24 23 23 23 23 23 23 23 24 24 24 24 23 22 22 21 21 21 21 20 20 19 18 17 17 16 16 15 15 13 12 13 14 15 15 15 14 14 13 12 11 11 13 14 14 15 14 14 15 17 18 19 19 18 17 17 17 16 15 14 13 11 11 11 11 12 12 13 12 12 12 11 10
32 28 27 26 26 25 25 24 24 24 24 23 23 23 22 22 22 23 23 23 23 23 23 23 22 21 21 21 21 21 21 20 20 20 19 18 17 16 16 15 15 14 13 13 14 14 15 15 15 14 13 12 12 12 14 14 14 15 15 14 15 16 18 19 19 18 17 17 18 17 16 15 14 12 12 12 12 12 13 13 13 13 13 12 11
31 29 28 27 27 26 25 25 24 24 24 23 23 22 22 22 22 23 23 23 23 23 23 22 22 21 21 21 21 21 20 20 20 20 19 19 17 16 16 15 15 14 14 14 14 14 14 15 15 15 14 13 12 13 15 15 15 16 15 15 15 15 17 19 20 19 18 19 19 18 17 16 15 14 13 12 12 12 13 14 14 13 14 13 12
30 30 27 27 26 26 26 25 25 24 24 23 23 23 22 21 21 22 22 22 22 23 22 22 21 21 20 20 21 20 20 19 19 20 19 19 18 16 16 15 15 15 15 15 15 15 14 14 14 15 15 14 14 14 15 16 17 17 17 16 16 16 17 19 20 20 20 20 20 19 18 17 15 14 14 13 13 13 14 14 14 14 14 14 13
24 24 24 25 25 26 26 25 25 25 25 24 24 23 21 21 21 21 21 21 21 21 21 20 20 19 19 20 20 20 20 19 19 19 19 19 18 17 16 15 15 15 15 15 15 15 15 15 14 14 15 15 15 15 16 18 18 18 18 18 17 17 16 18 21 21 21 20 20 19 19 18 16 15 15 14 13 13 14 14 15 15 14 14 14
25 22 21 23 24 25 25 25 25 25 25 25 24 22 21 20 20 20 20 20 20 20 19 19 19 19 19 19 19 19 20 19 19 19 19 19 19 18 16 15 14 14 14 15 15 15 15 16 16 16 15 15 16 16 17 18 19 19 19 19 19 18 17 18 20 22 22 21 21 21 21 19 17 17 16 15 14 14 14 15 15 15 15 15 14
26 23 21 22 24 24 25 25 25 25 26 25 23 22 21 20 20 20 19 19 19 18 18 18 18 19 19 19 19 19 19 19 19 18 18 19 20 19 17 15 15 14 14 15 15 13 13 14 16 17 17 16 16 17 17 19 19 20 21 21 20 19 18 18 21 23 23 22 22 23 22 20 18 17 17 16 15 15 15 15 16 16 15 15 14
25 24 22 22 23 22 23 23 24 25 25 24 23 22 22 21 20 19 19 19 18 18 18 18 19 20 20 20 19 19 19 19 18 18 18 19 20 20 18 16 15 15 15 16 15 13 12 12 14 16 18 17 17 18 18 19 20 20 21 22 21 20 18 18 20 23 24 23 23 23 22 20 19 18 18 17 16 15 15 15 16 16 16 15 14
27 24 22 22 22 22 23 24 24 23 23 23 23 23 22 21 20 19 19 19 18 18 18 19 20 20 21 21 20 20 20 20 18 17 17 18 19 20 19 17 16 16 16 17 16 14 13 12 13 15 17 17 17 18 19 20 20 20 22 22 22 21 19 18 20 24 24 24 25 24 22 21 20 20 19 18 17 16 16 16 16 16 16 16 15
28 25 24 24 24 25 26 26 23 22 22 22 22 21 21 20 19 19 19 18 18 19 20 20 21 21 21 21 21 21 21 21 19 18 17 17 18 20 19 18 17 17 17 18 17 15 14 12 13 15 16 17 17 18 19 19 20 21 21 22 23 22 20 19 20 24 25 25 26 25 23 22 21 21 20 20 18 17 17 17 17 17 16 16 16
28 27 26 26 27 27 27 25 23 22 21 21 20 19 19 19 19 19 19 18 19 19 21 21 22 21 21 22 22 22 22 22 21 19 17 17 17 18 19 19 18 18 18 18 17 16 15 13 13 14 16 17 17 18 19 20 20 20 21 22 23 23 22 20 20 24 26 26 26 26 25 24 23 22 21 21 20 18 18 17 17 17 17 16 16
29 29 28 27 27 26 25 23 22 21 21 20 20 20 19 19 19 19 19 18 19 20 21 22 22 22 22 22 22 22 22 22 22 21 19 17 17 17 18 19 19 19 19 19 18 17 16 15 14 14 16 17 17 18 19 20 21 21 21 22 23 24 24 22 21 23 26 28 27 27 26 25 25 24 22 22 21 20 19 18 18 17 17 16 16
29 28 26 26 26 24 22 21 20 19 19 19 20 20 20 20 20 19 19 19 19 20 21 21 22 22 23 22 22 22 22 22 22 21 20 18 17 17 18 18 19 19 19 19 19 18 17 16 15 14 14 15 16 18 19 21 22 22 22 22 23 24 25 23 21 22 26 29 29 28 28 27 26 25 24 23 22 21 19 18 17 17 17 17 16
30 27 25 25 23 22 20 18 18 18 19 20 20 20 20 20 19 19 19 19 20 20 20 20 21 22 22 21 21 21 21 21 22 22 20 19 17 17 17 18 18 19 19 20 20 19 18 17 15 13 14 15 16 17 19 20 22 23 23 22 23 24 25 25 22 22 25 29 30 29 29 28 27 27 26 25 23 22 20 18 17 17 17 17 17
28 27 25 23 20 19 17 15 15 17 19 20 20 19 18 18 19 19 19 19 19 20 20 20 21 21 21 21 20 21 21 20 21 21 20 20 18 18 18 18 19 19 19 20 19 17 16 16 14 13 14 15 16 17 18 20 21 23 23 23 23 25 26 25 24 23 24 28 30 30 30 30 29 28 27 26 25 23 22 20 19 18 17 17 17
30 27 24 20 18 16 16 15 16 17 17 17 16 16 17 18 18 19 19 19 19 19 20 20 20 21 22 21 21 22 21 21 20 20 19 20 20 19 18 18 19 19 19 18 16 15 15 14 13 13 14 15 16 17 17 19 22 23 24 25 25 26 26 26 25 24 24 27 30 31 31 31 31 30 29 28 26 25 23 22 21 20 19 18 17
28 24 21 19 16 15 15 16 16 15 15 14 14 15 16 17 18 18 19 19 19 20 20 20 21 21 21 21 21 21 21 20 19 19 19 20 20 19 17 17 18 18 18 17 16 15 14 13 12 13 13 14 15 15 16 18 21 23 26 27 27 28 28 27 27 26 25 27 30 32 33 33 33 32 30 29 28 27 25 24 23 22 20 19 19
23 22 18 17 15 13 13 13 13 12 13 14 14 15 15 16 17 18 19 19 19 20 21 22 22 21 20 21 21 20 19 18 18 17 18 18 18 17 16 16 17 16 16 16 16 16 14 13 13 13 13 14 14 15 17 18 19 20 23 26 28 29 29 29 28 27 26 27 30 32 33 34 34 34 32 30 30 29 27 26 25 24 23 22 21
18 19 15 14 12 10 10 12 12 12 12 13 14 15 15 16 17 18 20 19 19 20 21 21 21 21 20 21 21 20 18 17 16 15 15 15 16 15 15 14 15 14 13 14 15 15 14 14 14 14 14 15 16 16 18 19 18 17 18 21 24 26 28 28 29 28 28 29 29 31 33 34 35 35 34 32 31 30 29 28 27 26 24 23 22
15 15 12 12 11 10 10 11 12 12 12 13 14 15 16 17 18 19 19 19 19 20 21 20 19 20 21 21 21 20 18 16 15 15 15 15 15 14 14 13 13 12 12 12 14 15 16 16 16 16 16 17 18 18 19 19 19 18 18 19 20 22 24 26 29 30 30 31 30 30 32 34 35 36 35 34 33 32 30 29 28 27 26 25 24
14 12 10 11 10 9 10 11 12 12 12 13 15 16 17 17 18 19 19 19 19 19 19 19 18 19 20 21 20 19 18 17 16 16 16 17 16 14 13 12 11 12 12 12 12 14 15 15 16 17 17 18 19 19 20 20 20 19 19 19 18 19 21 23 28 30 32 34 33 30 31 32 35 36 36 36 35 33 32 31 29 28 28 27 26
13 11 11 11 9 9 9 11 12 13 12 13 14 15 16 17 18 18 18 18 19 19 18 18 18 18 20 21 19 18 17 17 17 17 16 15 15 14 13 12 11 12 12 12 12 12 12 13 15 16 18 19 19 19 20 21 21 20 20 19 18 19 18 20 26 31 33 36 35 30 29 31 33 36 36 36 36 34 34 32 31 30 30 29 28
18 13 12 10 9 10 10 11 12 14 14 14 14 15 16 17 17 18 17 17 17 17 16 17 17 17 19 19 16 16 16 15 16 17 14 13 14 14 13 13 12 11 11 12 14 15 15 15 15 16 18 19 19 19 20 21 21 21 20 20 20 19 18 18 22 29 33 36 35 31 28 29 31 33 35 36 36 35 35 34 33 32 31 31 30
16 10 9 8 9 12 13 13 13 15 16 15 15 15 15 16 17 18 18 18 17 16 16 16 16 16 17 17 15 16 17 16 16 15 14 13 14 14 13 12 11 10 11 12 14 16 16 16 16 16 16 17 18 19 20 20 20 20 20 20 20 18 17 17 20 25 31 35 35 32 28 28 29 31 33 35 36 36 35 35 34 33 33 33 32
17 11 10 9 10 14 15 15 15 15 16 15 15 14 15 16 16 17 18 18 18 18 17 17 16 16 17 17 17 18 18 17 15 13 12 11 11 12 12 11 11 11 12 13 13 14 16 17 17 16 15 15 17 18 18 18 19 19 19 19 19 19 18 18 19 22 29 34 35 33 30 29 29 30 32 34 36 37 36 36 35 35 35 34 34
21 15 14 13 13 16 17 18 18 17 17 16 15 14 13 14 16 17 18 18 19 19 19 19 17 17 17 16 16 18 18 17 15 12 10 9 9 10 11 12 12 12 13 13 13 14 15 17 17 16 16 15 15 15 14 14 16 17 18 17 17 18 19 19 20 21 26 32 34 34 32 31 31 31 31 33 35 36 37 36 36 36 36 36 35
25 19 16 15 16 19 19 19 19 20 19 17 16 15 14 14 15 17 18 19 20 20 21 21 20 18 18 16 17 18 18 18 16 12 9 8 9 10 12 14 14 14 13 13 12 12 13 15 16 16 16 15 15 15 14 14 14 15 16 18 17 17 19 20 22 23 25 28 33 35 34 33 32 31 30 31 32 34 36 37 37 37 37 37 35
25 20 17 16 18 20 19 17 18 19 19 17 16 15 15 15 15 15 17 18 19 21 21 22 22 20 20 19 19 19 18 17 17 14 11 10 11 12 13 14 14 14 13 13 12 12 13 15 16 16 15 15 15 16 16 15 15 15 16 18 18 18 19 19 19 21 24 26 30 34 35 35 35 33 31 31 31 31 33 35 37 38 38 38 37
21 18 17 17 18 18 17 16 15 16 17 16 15 15 15 15 14 14 15 16 17 19 20 21 22 22 21 21 21 20 17 17 16 13 11 12 13 13 14 14 14 14 13 12 13 13 14 15 15 15 15 14 15 16 17 16 16 17 17 18 18 19 19 18 17 18 21 24 27 31 34 36 37 35 33 33 32 31 32 33 35 36 37 38 38
18 17 17 17 18 17 15 14 14 15 16 15 13 14 14 14 15 15 15 15 16 17 18 20 22 22 22 22 22 21 19 17 16 14 12 13 15 15 15 15 14 13 13 12 13 13 13 14 14 14 14 14 15 17 18 17 17 17 17 17 18 19 20 19 18 17 18 20 23 27 31 35 37 37 37 36 35 34 33 32 33 35 36 37 37
16 17 17 18 19 18 16 15 15 16 16 14 13 13 14 14 15 16 15 15 15 17 17 19 21 22 22 22 22 22 21 21 20 18 16 15 16 16 16 15 15 14 13 13 13 13 13 13 14 14 14 14 14 16 17 17 16 16 17 17 17 19 20 19 18 18 18 19 21 25 28 31 34 37 38 38 38 37 35 33 33 34 35 35 35
15 16 17 18 19 18 17 16 15 16 16 13 11 11 13 15 16 16 16 16 16 17 18 19 20 21 21 21 21 22 21 21 21 21 19 18 18 18 17 16 16 14 14 14 14 14 13 13 14 14 14 15 14 13 13 14 14 15 16 17 17 18 19 19 18 18 19 20 22 24 26 29 31 34 37 39 40 40 38 36 34 33 33 33 33
16 16 17 18 18 17 17 16 16 16 16 13 10 9 11 13 15 16 17 18 17 17 18 18 19 20 20 20 20 21 21 22 21 21 20 19 19 19 18 17 17 16 15 14 14 14 14 14 14 15 15 15 14 13 13 13 13 14 15 15 17 17 17 17 17 18 20 21 22 23 25 27 29 30 32 36 40 42 42 39 36 34 33 33 32
17 16 16 17 18 18 18 17 16 17 16 13 9 7 7 9 12 14 16 18 18 19 18 18 18 18 18 18 18 19 20 21 22 21 21 21 20 20 19 18 18 17 16 15 15 15 15 15 15 15 15 15 15 14 13 13 13 14 15 15 15 15 15 16 17 19 20 22 23 24 25 27 28 28 29 31 36 41 44 42 39 37 35 33 32
17 16 16 18 18 19 19 17 17 17 16 12 8 6 6 8 11 13 14 16 17 19 19 19 18 18 18 18 17 18 19 20 20 21 21 21 21 20 20 19 18 18 16 16 16 16 16 16 16 16 16 16 15 14 14 14 14 15 16 15 15 15 16 17 18 20 21 23 23 24 25 27 28 29 29 30 31 36 42 43 41 40 37 35 34
17 16 17 19 19 19 19 18 18 19 17 12 8 7 6 8 12 14 15 16 17 17 19 19 19 19 18 18 18 18 18 18 19 19 20 20 20 20 20 19 18 18 17 16 16 17 17 17 17 16 17 16 16 16 16 16 16 16 17 16 16 18 19 20 21 22 23 24 24 24 24 25 27 29 30 30 29 31 36 40 42 42 40 38 37
18 18 19 19 19 19 19 19 20 21 18 13 8 7 6 8 12 14 15 17 17 17 18 19 19 20 19 19 19 19 18 18 18 18 18 19 19 19 19 18 18 18 17 17 17 17 17 17 17 17 17 17 17 17 17 17 17 17 18 18 19 20 21 21 22 23 23 24 24 24 24 25 26 27 27 28 29 29 31 35 39 42 43 42 40
19 21 20 18 19 19 20 22 22 21 18 14 9 7 7 8 12 14 14 15 17 17 18 19 20 20 21 20 19 19 19 19 19 18 18 18 18 18 18 18 18 18 18 17 17 18 18 18 18 18 18 18 18 18 18 18 18 18 18 19 19 20 21 22 22 22 22 23 24 23 23 23 24 23 22 24 27 28 29 31 35 40 44 44 43
20 22 21 19 20 20 22 24 22 19 17 15 12 10 8 9 12 15 15 15 15 16 16 17 19 20 21 21 20 20 20 19 19 19 18 18 18 18 18 18 18 18 18 18 18 18 18 18 19 19 19 19 19 19 19 19 19 19 19 19 20 20 21 22 22 22 22 22 23 22 21 21 21 21 20 19 21 25 28 30 33 37 41 44 45
21 22 21 20 20 19 21 23 22 19 16 15 15 14 12 10 13 15 16 16 15 16 16 16 17 19 20 20 20 20 20 20 20 19 19 18 18 18 18 17 17 18 18 19 19 19 19 19 19 19 19 19 19 19 19 19 20 20 19 20 20 20 20 20 21 21 21 22 22 22 20 18 17 17 16 14 15 20 25 29 32 34 37 41 45
21 23 23 22 20 19 19 21 24 25 21 17 17 19 18 14 14 17 17 17 16 16 16 17 17 18 18 19 19 20 20 20 20 19 19 18 18 18 17 17 17 17 18 18 19 19 19 19 19 19 19 19 18 18 19 19 19 19 19 20 20 19 19 19 19 20 21 21 21 21 21 18 16 16 15 14 15 17 20 25 30 32 34 37 41
22 24 25 23 20 19 20 21 24 30 32 27 24 24 24 20 17 18 19 18 17 16 16 17 17 18 18 18 18 19 19 19 19 19 18 18 18 17 17 17 17 17 17 17 17 18 18 19 19 19 18 18 18 18 18 18 18 18 19 19 19 19 19 19 19 19 20 20 21 21 21 20 19 19 19 19 19 18 18 20 24 29 32 35 38
24 26 27 27 24 22 22 22 23 30 38 36 32 31 30 25 20 20 21 20 17 16 16 16 17 17 18 18 18 18 19 19 18 18 17 17 17 17 17 17 16 16 16 16 16 16 16 17 17 17 17 17 17 17 16 17 17 17 17 18 18 18 19 19 18 19 19 20 20 21 21 22 22 22 22 22 22 21 20 18 19 23 28 32 36
Wind_Direction
262 265 265 266 268 269 270 272 274 274 274 275 277 279 281 282 285 288 290 291 292 292 291 292 293 294 296 297 299 300 300 299 297 294 288 283 279 277 275 270 263 257 252 246 244 244 245 246 244 243 235 231 228 217 211 205 200 202 205 205 205 204 201 195 192 193 191 188 187 186 183 184 186 182 176 169 164 157 145 137 132 128 127 123 117
263 265 264 264 267 268 270 271 273 273 274 275 277 279 281 283 286 289 291 292 292 292 292 292 293 294 295 296 298 299 300 299 297 294 288 282 278 276 273 269 261 254 250 244 241 241 242 247 246 245 239 231 228 222 215 208 203 204 206 206 206 206 204 197 193 195 194 191 190 189 185 189 193 188 181 173 168 162 152 144 138 133 131 128 125
263 263 263 264 265 267 269 271 272 272 274 276 277 279 281 283 286 289 291 292 292 292 293 292 293 294 295 296 298 299 299 298 296 293 288 282 278 274 271 267 259 253 249 244 239 239 240 245 246 247 244 236 231 226 219 211 206 206 207 206 206 207 205 200 197 197 196 194 194 192 189 192 196 192 187 179 173 167 159 153 146 140 136 133 132
265 263 263 263 264 266 268 269 270 271 274 276 277 279 281 284 286 289 291 291 292 292 293 293 294 295 295 296 297 298 298 297 294 291 286 282 279 274 269 265 258 251 248 244 239 239 238 242 245 247 247 241 235 229 223 215 212 211 210 207 205 207 207 203 201 199 198 197 197 197 194 196 198 195 192 186 179 172 166 160 155 148 142 139 138
270 265 262 261 263 265 266 268 269 271 274 276 278 280 282 285 289 290 291 292 292 292 293 293 295 296 296 295 295 296 296 295 293 288 285 281 279 275 269 264 258 249 245 244 240 239 239 241 244 245 245 243 238 231 226 220 219 217 214 209 205 207 207 206 204 202 200 199 200 201 201 203 202 198 196 191 185 179 172 167 163 156 151 146 143
268 265 262 260 261 263 265 267 269 272 273 275 277 279 282 286 291 292 293 293 293 293 293 294 295 296 295 293 293 294 294 293 291 286 283 279 276 274 269 263 257 249 243 242 241 240 240 241 243 244 243 242 240 234 230 227 226 221 216 212 207 207 208 207 206 205 203 202 203 206 208 209 206 201 200 196 191 186 179 173 169 163 159 155 150
263 261 260 258 258 261 263 266 268 270 271 273 275 277 283 288 292 293 293 294 294 294 294 295 295 296 294 292 291 291 291 291 290 285 281 277 273 271 269 264 258 249 243 241 241 242 240 241 242 243 240 238 239 237 235 235 233 226 220 214 209 207 208 207 206 207 207 205 206 211 213 211 209 206 204 201 196 191 186 180 175 170 167 163 158
257 256 257 254 256 259 262 265 265 268 269 271 273 277 283 288 292 292 293 294 294 295 296 296 296 295 292 290 288 288 289 290 289 285 280 275 272 270 267 264 259 250 243 242 241 243 242 240 241 242 242 240 240 240 239 239 237 232 226 218 211 209 208 206 206 207 209 210 210 214 214 212 213 213 209 205 202 197 191 187 181 175 173 169 165
251 253 254 253 255 259 261 262 264 266 267 269 274 279 284 288 290 291 291 292 293 294 295 296 295 293 291 287 286 286 287 289 288 285 281 275 271 268 265 261 258 250 242 242 242 243 244 243 242 243 246 246 243 243 242 241 239 236 231 223 217 213 209 205 205 207 210 214 215 217 218 217 216 217 215 209 206 202 196 192 187 180 177 174 170
247 252 253 255 258 260 261 261 263 264 267 271 275 280 285 288 288 289 290 291 293 293 293 294 293 292 289 286 284 284 285 288 288 286 281 275 269 265 262 257 254 249 240 239 242 242 244 245 245 245 248 249 244 243 243 243 242 238 233 228 225 221 213 205 204 207 211 216 218 220 221 221 219 218 219 214 209 207 202 197 193 185 181 178 174
247 253 254 257 259 260 261 260 262 264 268 273 277 281 285 287 287 287 288 290 291 290 291 291 290 290 288 285 283 282 284 286 286 284 280 273 267 261 259 255 251 248 241 237 239 241 243 244 245 245 246 248 245 241 242 243 243 240 234 230 231 227 218 207 202 205 211 215 219 220 221 223 223 221 220 218 212 209 208 202 197 190 185 182 178
246 249 251 255 258 259 260 259 262 266 271 274 278 281 284 286 286 286 287 288 288 289 290 290 289 289 287 284 282 281 282 283 284 283 279 273 266 259 255 253 250 247 245 241 240 241 243 243 243 244 242 242 243 240 239 240 240 240 235 231 230 228 221 211 201 204 212 215 219 220 221 224 224 226 223 220 215 211 211 206 201 196 190 186 182
244 247 252 255 257 258 258 260 264 269 273 275 278 281 284 284 284 285 285 287 287 288 288 289 289 288 286 283 282 280 280 281 282 282 279 274 266 259 252 249 247 245 245 245 243 242 243 242 241 242 241 239 240 239 237 237 238 238 235 231 229 226 221 214 203 203 212 215 220 221 222 223 222 225 226 223 218 214 212 209 205 200 196 191 187
250 256 260 258 256 257 259 264 268 271 274 276 279 281 283 282 282 283 284 285 285 287 286 287 288 287 285 282 282 281 281 281 281 281 279 275 268 260 251 246 243 242 242 243 243 241 241 242 242 242 241 239 238 239 237 237 238 236 235 232 231 227 221 216 205 204 211 213 219 222 222 222 221 225 226 225 220 216 215 212 208 203 200 196 192
253 260 261 260 259 261 264 267 270 273 276 277 279 280 281 280 281 282 281 281 281 284 285 287 288 286 284 282 282 281 281 281 281 280 278 276 270 262 252 245 241 241 242 243 243 241 240 241 242 243 242 239 237 238 237 237 238 236 235 233 232 229 223 217 207 205 209 212 218 221 223 221 221 226 228 227 223 218 217 215 211 206 203 200 197
255 259 259 260 260 262 264 267 272 275 276 276 277 278 278 279 280 280 278 276 278 281 283 286 286 284 283 283 282 280 279 280 281 280 277 274 270 264 255 247 241 241 245 248 249 247 244 242 241 243 242 239 236 237 237 237 238 237 236 235 233 230 226 220 208 205 207 211 218 220 222 222 220 225 228 228 226 221 219 219 215 209 205 203 201
255 259 260 257 257 259 263 268 274 277 277 276 275 275 275 277 278 278 277 276 275 276 279 283 284 283 284 284 282 280 278 278 278 277 275 273 270 265 258 251 244 243 247 252 254 253 251 247 243 243 243 240 236 235 237 238 239 239 237 236 234 232 228 224 211 205 206 210 218 220 219 222 221 223 227 228 226 222 220 221 221 215 209 206 204
257 262 260 257 258 261 266 271 275 276 277 276 274 273 274 276 276 276 277 277 275 274 277 282 283 282 283 284 282 281 278 276 275 273 271 270 267 263 260 255 249 245 248 254 258 259 258 255 249 244 243 241 236 235 237 239 240 239 240 239 236 234 230 226 216 207 205 209 217 219 217 219 220 221 224 226 225 221 218 219 223 221 216 211 208
260 264 263 263 265 269 273 275 275 275 275 274 273 273 274 274 274 275 276 275 273 273 277 281 282 282 283 282 282 281 278 276 273 271 268 265 262 260 260 258 254 249 250 255 259 263 262 260 255 248 243 240 237 235 237 240 241 240 241 242 237 235 232 226 219 211 206 209 215 219 217 216 219 220 221 224 224 221 217 216 220 223 222 217 214
261 265 267 269 271 276 278 276 273 272 272 272 270 270 272 274 275 276 276 274 272 273 277 279 281 281 282 282 282 281 279 276 273 270 267 262 258 256 257 258 257 254 252 255 259 261 261 260 256 249 242 239 238 237 238 240 241 240 240 242 239 236 233 228 223 215 209 209 213 218 218 215 217 219 219 221 223 222 218 215 216 220 223 222 219
263 267 268 269 272 274 273 271 271 272 272 270 270 271 272 274 275 275 275 274 272 274 277 279 280 280 281 283 284 284 281 278 273 269 266 260 256 254 255 257 259 259 258 258 259 258 257 257 254 249 242 239 240 240 240 240 241 241 240 240 241 239 233 228 227 221 213 211 213 217 219 216 215 217 218 220 221 221 220 217 216 218 222 223 222
263 266 265 267 267 266 267 270 271 271 271 271 272 272 270 271 271 271 273 273 272 274 278 279 280 280 280 282 284 284 283 278 273 269 266 260 253 252 253 256 258 261 261 260 259 258 255 254 253 249 244 239 240 242 244 243 243 243 242 241 242 241 235 228 226 226 220 215 214 217 220 219 216 216 218 219 220 220 219 218 217 218 221 224 224
257 257 259 261 260 261 267 270 270 269 268 270 270 268 267 267 268 271 273 273 274 277 279 279 277 277 277 279 282 282 281 275 269 267 266 262 255 251 252 255 257 260 261 260 258 255 254 254 253 249 245 240 238 241 246 249 248 247 245 243 241 240 236 229 224 226 225 220 218 217 219 222 219 216 217 219 220 220 218 217 216 216 219 222 225
244 248 251 253 255 261 270 273 273 270 267 268 267 266 265 266 270 272 274 274 276 277 278 278 276 275 274 278 283 283 280 274 268 265 265 261 257 252 251 253 256 259 260 259 256 252 252 253 252 248 245 241 237 238 245 251 252 251 249 245 241 241 240 233 225 225 227 225 222 220 219 222 222 218 217 218 219 220 219 217 215 214 216 220 223
230 233 240 245 252 261 272 276 273 269 267 265 265 265 265 267 270 269 271 272 272 273 274 275 275 274 274 279 285 285 281 273 268 265 259 255 254 252 250 251 252 255 259 260 259 253 247 246 246 245 246 245 241 240 245 252 253 251 250 247 242 242 244 238 228 225 226 227 225 222 220 221 223 221 218 218 218 219 219 219 217 214 215 217 220
218 216 227 238 249 262 273 275 269 272 274 270 267 266 268 271 270 268 270 270 271 272 274 274 273 273 275 280 282 281 278 270 265 262 257 253 251 252 252 252 252 253 257 261 261 256 246 239 239 241 246 252 251 248 248 254 256 253 252 250 246 245 245 242 232 226 225 228 229 227 222 221 223 223 220 219 218 219 220 220 220 217 215 216 218
212 207 220 233 244 257 270 275 272 279 282 276 272 269 270 270 269 270 270 270 271 274 277 276 272 271 273 278 278 276 275 270 264 258 254 251 246 247 249 251 253 252 253 256 258 258 253 243 239 240 246 253 255 254 253 255 257 259 257 255 254 251 249 245 235 227 225 228 232 232 228 224 223 225 223 220 219 220 220 221 222 221 218 216 218
232 213 224 238 247 256 270 285 286 286 283 277 273 271 269 267 268 269 271 272 273 277 281 278 274 271 271 275 277 273 272 272 266 256 252 248 242 243 246 247 250 254 253 249 251 256 255 249 245 245 248 251 253 255 256 255 254 255 257 257 259 257 254 249 238 229 225 227 230 232 231 227 225 226 226 223 221 221 220 222 223 224 222 220 219
251 234 240 251 264 273 282 291 293 293 288 282 277 275 273 271 272 272 273 275 277 280 281 279 276 271 269 271 274 272 270 271 265 258 255 249 244 244 244 246 249 252 249 246 248 249 250 253 255 255 253 251 252 254 255 256 254 252 254 255 258 259 260 255 242 231 226 227 228 229 230 229 227 227 228 226 224 222 221 222 222 224 225 223 222
265 266 260 260 275 290 295 289 293 299 296 292 286 284 281 278 277 277 277 278 280 281 281 279 273 271 272 270 270 270 269 266 262 260 256 247 244 243 241 243 246 247 244 244 245 244 248 257 262 263 261 256 254 254 255 255 255 253 251 250 252 255 259 258 247 235 228 228 229 230 231 231 230 229 229 229 227 225 224 223 223 224 225 226 225
281 286 269 267 290 302 297 287 293 297 295 295 291 288 285 280 277 276 277 281 283 284 283 279 272 273 276 274 273 270 267 263 263 262 256 246 242 242 243 244 245 248 248 247 246 248 254 258 259 261 262 260 259 258 255 254 255 254 253 251 250 253 255 255 249 239 232 229 229 231 234 236 235 233 231 230 230 229 227 226 226 226 226 227 228
301 299 286 285 302 302 294 292 294 295 295 297 294 293 292 290 285 279 277 280 285 289 289 287 284 283 281 280 279 273 268 263 263 264 257 246 241 242 247 253 258 262 263 261 254 252 255 257 258 259 258 260 262 262 260 259 259 256 254 253 252 253 254 254 249 241 235 231 230 231 234 238 239 238 235 233 232 231 230 229 229 229 228 228 230
326 321 324 312 303 300 296 297 295 295 298 296 293 294 298 302 300 293 285 281 284 286 289 292 294 292 290 286 280 279 280 272 265 263 255 247 251 257 260 269 279 280 278 275 267 258 257 259 261 261 260 263 265 265 264 264 262 257 251 252 254 254 253 252 248 241 237 233 231 232 234 236 238 239 239 236 234 234 233 231 230 230 231 231 231
321 322 332 322 313 310 306 305 301 302 300 292 286 284 290 298 300 298 292 285 282 283 287 292 294 296 300 296 286 286 285 278 269 260 251 248 266 283 285 287 289 288 286 283 276 268 262 261 262 264 265 268 266 267 270 268 267 263 256 256 258 257 254 253 247 240 236 233 232 233 236 237 238 239 239 239 238 237 236 235 233 232 233 234 234
307 312 322 319 313 311 309 308 307 308 303 296 291 285 285 288 292 295 293 291 287 286 288 292 295 296 299 298 293 291 287 285 281 272 270 266 269 283 291 296 298 297 294 289 285 278 270 267 267 269 272 272 269 269 273 273 273 273 266 261 260 257 256 257 253 242 233 230 230 232 237 239 240 240 241 242 242 241 241 240 237 235 236 237 238
295 303 314 313 307 304 302 302 304 306 301 296 292 290 289 286 287 289 291 294 293 293 291 291 294 294 294 294 293 294 292 292 290 282 285 287 282 285 290 299 304 303 300 296 292 286 281 276 274 276 277 276 272 270 272 272 274 275 272 266 263 259 258 260 259 248 237 230 227 229 234 237 240 241 242 244 245 245 244 243 242 239 239 240 240
291 301 308 307 303 301 296 294 298 299 295 292 290 289 289 285 284 282 284 289 293 296 296 294 293 291 291 291 292 293 289 287 284 274 276 285 287 289 293 299 303 302 301 298 295 290 285 282 280 279 278 277 271 268 269 271 272 274 274 269 264 262 260 260 259 251 242 234 229 228 231 236 240 242 242 245 247 247 245 244 244 243 242 242 241
295 299 300 300 298 295 290 289 291 290 287 287 289 290 289 288 286 282 279 281 284 289 292 292 291 290 290 288 288 290 288 287 284 276 276 282 282 286 292 296 298 296 295 293 290 288 285 283 283 279 277 275 270 268 270 271 273 274 273 269 264 262 261 259 256 251 246 241 236 233 233 235 239 242 243 244 245 246 247 246 244 244 244 245 244
295 296 296 293 291 288 285 285 285 284 283 284 289 294 293 291 289 287 284 279 277 278 280 282 284 287 290 289 288 290 291 291 290 289 288 283 280 283 289 293 294 293 291 288 286 285 285 286 285 282 278 274 272 275 274 272 273 274 273 271 266 263 262 261 257 254 251 248 244 242 241 239 240 241 242 244 245 245 246 246 245 244 245 247 247
292 295 293 288 285 282 281 280 280 280 279 281 290 295 295 294 293 293 291 286 280 278 279 280 281 284 288 290 290 290 290 289 289 290 288 283 279 281 286 290 291 290 289 287 287 288 290 291 289 285 280 274 273 279 280 275 273 275 276 274 270 265 262 261 260 259 256 253 249 249 249 247 246 245 244 243 244 245 244 243 243 243 244 246 247
294 296 290 283 280 277 275 274 275 275 273 274 281 289 297 301 301 298 295 290 285 283 284 285 285 285 287 288 287 286 286 286 285 284 283 281 279 279 283 286 287 287 287 287 288 290 292 293 291 286 281 276 274 277 280 277 275 277 281 280 274 264 259 259 261 261 260 258 255 254 254 254 254 253 250 246 243 242 242 242 241 241 241 243 245
291 291 285 279 276 272 269 269 270 270 268 269 274 282 291 296 295 293 292 289 284 282 283 284 285 285 287 288 286 285 283 282 282 281 280 279 279 280 282 284 285 285 286 287 288 290 291 291 288 284 280 276 275 276 278 277 277 279 282 285 279 264 257 261 263 261 262 262 261 259 259 259 260 259 257 254 249 243 240 240 240 240 240 241 242
283 281 277 275 274 271 268 266 266 267 265 265 271 274 274 276 277 276 277 279 279 279 280 280 281 282 284 286 286 285 283 281 280 280 280 279 279 280 281 283 284 284 285 286 287 287 287 287 285 282 281 280 279 278 278 278 278 280 282 284 279 268 266 270 270 266 264 264 264 263 263 265 265 264 263 263 261 251 242 237 236 238 240 241 242
275 273 274 275 275 272 270 269 271 272 268 265 271 277 273 275 275 271 268 271 273 273 276 276 277 278 279 282 284 285 285 283 281 280 280 280 280 280 281 283 283 284 284 283 283 283 283 283 282 281 280 280 279 276 276 277 277 279 281 282 278 275 274 275 274 271 267 265 264 265 267 269 268 266 265 264 263 256 245 237 234 235 238 240 241
272 273 276 278 280 278 276 275 277 277 275 275 281 288 288 287 287 283 275 274 273 271 271 272 273 274 274 276 280 282 284 284 283 282 282 283 283 283 283 283 283 283 282 280 279 279 279 279 278 278 277 277 276 275 275 275 275 277 278 279 277 276 276 276 275 273 270 267 266 267 270 274 272 268 266 261 258 255 247 239 235 234 235 237 239
277 278 280 283 287 286 280 278 277 275 277 283 289 291 292 294 295 294 288 282 280 275 270 268 268 269 270 271 274 278 281 283 283 283 283 283 283 283 282 282 282 281 279 277 276 275 275 275 275 275 274 273 273 273 274 274 274 274 274 275 274 275 275 274 274 273 272 268 266 267 270 274 274 271 268 261 257 256 251 244 238 236 235 237 238
281 282 283 284 287 286 281 280 274 267 272 281 289 295 290 292 299 299 296 292 287 283 277 271 268 266 266 267 270 273 277 279 280 279 279 279 279 279 280 280 279 278 277 276 275 274 271 270 270 270 271 271 271 271 271 272 272 272 272 272 271 271 271 270 271 271 270 267 265 264 267 273 273 270 270 267 261 258 255 251 247 242 238 237 237
280 281 282 280 282 283 283 280 269 258 267 277 286 298 297 294 303 304 301 300 296 291 285 277 272 269 267 266 267 271 274 276 277 277 277 277 278 279 279 279 278 276 275 275 274 272 270 267 265 265 265 266 267 267 267 268 268 269 270 270 270 271 270 269 269 268 266 264 263 261 263 271 272 266 264 261 258 258 257 255 254 251 246 241 238
281 280 281 280 280 282 283 282 268 257 263 280 290 299 301 298 305 309 307 303 298 291 285 279 275 272 270 268 268 270 272 275 276 276 277 277 279 280 280 280 279 276 274 272 271 270 268 266 264 262 261 261 262 262 263 264 265 266 267 268 269 268 268 268 267 265 264 262 261 258 259 264 265 261 261 261 263 264 260 255 253 253 252 248 243
286 283 283 281 277 276 279 283 273 259 259 274 289 298 301 300 302 308 307 301 294 288 282 278 275 273 272 270 269 270 272 273 274 275 276 277 279 281 282 282 280 278 275 272 270 267 265 264 263 262 260 260 261 261 261 262 264 265 266 267 267 267 267 266 264 263 262 260 258 255 255 257 257 258 263 267 270 270 265 258 253 252 252 252 251
285 285 285 282 275 270 271 273 274 262 258 267 281 291 295 295 297 303 303 297 291 285 280 276 273 272 272 272 271 271 272 272 273 273 274 276 278 280 282 282 280 279 277 274 272 268 266 264 262 262 261 261 262 262 262 262 263 265 266 266 266 265 266 265 263 260 259 257 255 253 253 254 255 257 261 265 266 265 263 260 255 253 253 253 253
Height
5862 5862 5862 5862 5861 5861 5860 5860 5861 5861 5861 5861 5861 5861 5861 5861 5861 5861 5860 5860 5859 5859 5858 5857 5856 5856 5855 5854 5854 5853 5853 5852 5852 5851 5851 5850 5850 5849 5849 5849 5849 5850 5850 5850 5851 5851 5852 5852 5853 5853 5853 5854 5854 5853 5853 5853 5853 5853 5853 5854 5854 5855 5856 5857 5858 5859 5860 5860 5861 5861 5861 5861 5861 5861 5862 5862 5862 5863 5863 5863 5863 5863 5863 5863 5863
5861 5861 5860 5860 5859 5858 5858 5858 5859 5859 5859 5859 5860 5859 5859 5859 5859 5859 5859 5858 5858 5857 5856 5856 5855 5855 5854 5853 5853 5852 5852 5851 5851 5850 5850 5849 5849 5848 5848 5848 5848 5849 5849 5849 5850 5851 5851 5852 5852 5853 5853 5853 5853 5853 5853 5853 5853 5852 5852 5853 5854 5855 5856 5857 5858 5859 5859 5859 5860 5860 5861 5861 5861 5861 5862 5862 5862 5863 5863 5863 5863 5863 5863 5863 5863
5859 5858 5858 5857 5856 5856 5856 5857 5857 5857 5858 5858 5858 5858 5857 5857 5858 5857 5857 5857 5856 5856 5855 5854 5854 5854 5853 5852 5852 5851 5851 5850 5849 5849 5848 5848 5848 5848 5847 5847 5847 5848 5848 5849 5849 5850 5851 5851 5852 5852 5852 5853 5853 5853 5852 5852 5852 5852 5852 5853 5854 5855 5856 5857 5857 5858 5859 5859 5860 5860 5860 5861 5861 5861 5861 5862 5862 5863 5863 5863 5863 5863 5863 5863 5864
5856 5856 5855 5854 5854 5854 5854 5855 5855 5855 5856 5856 5856 5856 5855 5856 5856 5856 5855 5855 5854 5854 5853 5853 5853 5852 5852 5851 5850 5850 5849 5849 5848 5847 5847 5847 5846 5846 5846 5846 5846 5847 5847 5848 5849 5850 5850 5851 5851 5852 5852 5852 5852 5852 5852 5852 5851 5851 5852 5853 5854 5854 5855 5856 5857 5857 5858 5859 5859 5860 5860 5860 5861 5860 5861 5861 5862 5862 5863 5863 5863 5864 5864 5864 5864
5853 5853 5852 5852 5852 5852 5852 5853 5853 5854 5854 5854 5854 5854 5854 5854 5854 5854 5853 5853 5852 5852 5851 5851 5851 5851 5850 5850 5849 5848 5847 5847 5846 5846 5845 5845 5845 5845 5845 5845 5845 5846 5846 5847 5848 5849 5849 5850 5850 5851 5851 5852 5852 5852 5852 5851 5851 5851 5852 5853 5853 5854 5854 5855 5856 5857 5858 5859 5859 5860 5860 5860 5860 5860 5861 5861 5862 5862 5863 5863 5864 5864 5864 5864 5864
5850 5850 5849 5849 5849 5850 5850 5851 5852 5852 5852 5852 5852 5852 5852 5852 5852 5852 5851 5851 5850 5850 5850 5849 5849 5849 5849 5848 5847 5847 5846 5845 5845 5844 5844 5844 5843 5843 5843 5844 5844 5844 5845 5846 5847 5848 5849 5849 5850 5850 5851 5851 5851 5851 5851 5851 5851 5852 5852 5852 5853 5853 5854 5855 5856 5857 5858 5858 5859 5859 5859 5859 5860 5860 5861 5861 5861 5862 5862 5863 5863 5864 5864 5864 5864
5847 5847 5847 5847 5847 5848 5849 5849 5850 5850 5850 5850 5850 5850 5850 5850 5850 5850 5849 5849 5848 5848 5848 5848 5847 5847 5847 5846 5846 5845 5844 5844 5843 5843 5842 5842 5842 5841 5842 5842 5843 5843 5844 5845 5846 5847 5847 5848 5848 5849 5849 5850 5851 5851 5850 5850 5851 5851 5851 5852 5852 5852 5853 5854 5856 5857 5857 5858 5858 5858 5858 5859 5860 5860 5861 5861 5861 5862 5862 5863 5863 5864 5864 5864 5864
5843 5844 5844 5845 5846 5846 5847 5848 5848 5848 5848 5848 5848 5848 5848 5848 5848 5848 5847 5847 5846 5846 5846 5846 5845 5845 5845 5845 5844 5843 5843 5842 5841 5841 5841 5841 5840 5840 5840 5841 5841 5842 5843 5844 5845 5845 5846 5847 5847 5848 5848 5849 5850 5850 5850 5850 5851 5851 5851 5851 5852 5852 5853 5854 5855 5856 5857 5857 5857 5857 5858 5858 5859 5860 5860 5861 5861 5861 5862 5862 5863 5863 5864 5864 5864
5840 5842 5843 5844 5845 5845 5845 5846 5846 5846 5846 5846 5846 5846 5846 5846 5846 5845 5845 5845 5844 5844 5844 5843 5843 5843 5843 5843 5842 5841 5841 5840 5840 5840 5839 5839 5839 5839 5839 5839 5840 5841 5842 5843 5843 5844 5845 5845 5846 5847 5847 5848 5849 5849 5849 5849 5850 5850 5851 5851 5851 5851 5852 5854 5855 5856 5856 5857 5857 5857 5858 5858 5859 5859 5860 5860 5860 5861 5861 5862 5862 5863 5863 5864 5864
5840 5842 5844 5844 5844 5844 5844 5844 5844 5844 5844 5844 5844 5844 5844 5844 5844 5843 5843 5843 5843 5842 5842 5841 5841 5841 5841 5840 5840 5840 5839 5839 5838 5838 5838 5838 5838 5837 5837 5838 5839 5840 5841 5841 5842 5843 5843 5844 5844 5845 5847 5847 5848 5848 5848 5848 5849 5850 5850 5850 5850 5851 5852 5853 5855 5856 5856 5856 5856 5857 5857 5858 5858 5859 5859 5859 5860 5860 5860 5861 5862 5862 5863 5863 5864
5840 5841 5842 5842 5842 5842 5842 5842 5841 5842 5842 5842 5842 5842 5842 5842 5842 5841 5841 5841 5841 5840 5839 5839 5839 5839 5838 5838 5838 5838 5838 5837 5837 5836 5836 5836 5836 5836 5836 5836 5837 5838 5839 5840 5841 5841 5841 5842 5843 5844 5845 5846 5847 5847 5847 5848 5848 5849 5849 5849 5850 5851 5852 5853 5854 5855 5855 5855 5855 5856 5857 5857 5858 5858 5858 5859 5859 5859 5860 5860 5861 5862 5862 5863 5863
5836 5837 5838 5838 5839 5839 5839 5840 5840 5840 5840 5840 5840 5840 5840 5840 5839 5839 5839 5839 5839 5838 5837 5837 5837 5837 5837 5836 5836 5836 5836 5835 5835 5834 5834 5834 5834 5834 5834 5835 5835 5836 5837 5838 5839 5840 5840 5840 5841 5842 5843 5844 5845 5845 5846 5846 5847 5848 5848 5848 5849 5850 5851 5852 5854 5854 5854 5854 5854 5855 5856 5857 5857 5858 5858 5858 5858 5859 5859 5860 5860 5861 5861 5862 5862
5833 5834 5835 5836 5836 5837 5837 5838 5838 5838 5838 5838 5838 5838 5838 5838 5837 5837 5838 5837 5837 5836 5835 5835 5835 5835 5835 5834 5834 5834 5834 5833 5833 5833 5832 5832 5832 5833 5833 5834 5834 5835 5836 5837 5837 5838 5838 5839 5839 5840 5841 5842 5843 5844 5844 5845 5845 5846 5847 5847 5847 5848 5850 5851 5853 5853 5853 5854 5854 5855 5855 5855 5856 5857 5857 5857 5858 5858 5858 5859 5860 5860 5861 5861 5862
5830 5832 5833 5834 5834 5834 5835 5836 5836 5836 5835 5835 5836 5836 5836 5836 5835 5835 5835 5835 5835 5834 5833 5833 5833 5833 5833 5832 5832 5832 5832 5832 5831 5831 5831 5830 5831 5831 5832 5832 5833 5834 5835 5835 5836 5836 5837 5837 5838 5838 5839 5841 5842 5842 5843 5843 5844 5845 5845 5846 5846 5847 5849 5850 5852 5852 5852 5853 5853 5854 5854 5854 5855 5856 5856 5857 5857 5857 5857 5858 5859 5859 5860 5860 5861
5828 5830 5831 5832 5832 5832 5833 5833 5833 5833 5833 5833 5833 5834 5834 5833 5833 5833 5833 5833 5832 5832 5831 5831 5831 5831 5830 5830 5830 5830 5830 5830 5830 5830 5829 5829 5829 5829 5830 5831 5832 5833 5833 5834 5834 5835 5835 5835 5836 5836 5837 5839 5840 5840 5841 5841 5842 5843 5844 5844 5845 5846 5847 5849 5851 5851 5852 5852 5852 5852 5853 5854 5855 5855 5856 5856 5857 5857 5857 5857 5858 5859 5859 5860 5860
5827 5828 5829 5829 5830 5830 5830 5830 5830 5830 5830 5831 5831 5831 5831 5831 5830 5830 5830 5830 5830 5830 5829 5829 5828 5828 5828 5828 5828 5828 5828 5828 5828 5828 5828 5827 5827 5827 5828 5830 5831 5831 5831 5832 5832 5833 5833 5834 5834 5834 5835 5837 5838 5839 5839 5839 5840 5841 5842 5842 5843 5845 5846 5847 5850 5851 5851 5851 5850 5851 5852 5853 5854 5854 5855 5856 5856 5856 5856 5857 5857 5858 5858 5859 5860
5825 5825 5826 5826 5827 5827 5827 5827 5828 5828 5829 5829 5829 5829 5829 5828 5828 5828 5828 5828 5828 5828 5827 5826 5826 5826 5826 5826 5826 5826 5826 5826 5826 5826 5826 5826 5826 5826 5826 5828 5829 5830 5830 5830 5831 5831 5832 5832 5832 5833 5833 5835 5836 5837 5838 5838 5838 5839 5840 5841 5842 5843 5845 5846 5849 5849 5850 5850 5849 5850 5851 5853 5853 5854 5854 5855 5855 5856 5856 5856 5857 5857 5858 5859 5859
5822 5822 5823 5823 5824 5824 5825 5825 5826 5827 5827 5827 5826 5826 5826 5826 5826 5825 5826 5826 5826 5825 5825 5824 5824 5824 5824 5824 5824 5823 5824 5824 5824 5824 5824 5824 5824 5824 5825 5826 5827 5828 5829 5829 5829 5829 5830 5831 5831 5831 5832 5833 5834 5836 5836 5836 5837 5838 5838 5839 5840 5842 5844 5845 5847 5848 5849 5849 5848 5848 5850 5851 5852 5853 5853 5853 5854 5855 5855 5855 5856 5857 5857 5858 5859
5819 5819 5819 5820 5821 5822 5823 5824 5824 5825 5825 5824 5824 5824 5824 5824 5823 5823 5824 5823 5823 5823 5823 5823 5822 5822 5822 5821 5821 5821 5821 5822 5822 5822 5823 5823 5823 5823 5823 5824 5825 5826 5827 5827 5827 5827 5828 5829 5830 5830 5830 5831 5832 5834 5834 5834 5835 5836 5837 5838 5839 5840 5842 5844 5845 5846 5848 5848 5847 5847 5849 5850 5851 5851 5852 5852 5853 5853 5854 5854 5855 5856 5857 5858 5858
5815 5815 5817 5818 5820 5821 5821 5822 5822 5822 5822 5822 5822 5822 5822 5822 5821 5821 5821 5821 5821 5821 5821 5821 5820 5820 5819 5820 5820 5819 5819 5820 5820 5821 5821 5821 5821 5821 5822 5822 5823 5824 5825 5825 5825 5826 5826 5827 5828 5829 5829 5830 5830 5832 5832 5833 5833 5834 5835 5836 5837 5838 5840 5842 5844 5845 5846 5847 5846 5846 5847 5849 5850 5850 5850 5851 5851 5852 5853 5853 5854 5855 5856 5857 5858
5813 5814 5815 5816 5818 5818 5818 5819 5819 5820 5820 5820 5820 5820 5820 5820 5819 5819 5819 5819 5819 5819 5819 5819 5818 5817 5817 5818 5817 5817 5817 5818 5819 5819 5819 5819 5819 5819 5819 5820 5820 5821 5822 5823 5823 5824 5824 5825 5826 5827 5828 5829 5829 5829 5830 5831 5831 5831 5833 5834 5835 5836 5838 5840 5842 5843 5844 5845 5845 5845 5846 5847 5848 5849 5849 5850 5850 5851 5852 5852 5853 5854 5855 5856 5857
5811 5812 5813 5813 5814 5814 5815 5816 5817 5818 5817 5817 5818 5818 5818 5817 5817 5817 5817 5817 5817 5817 5817 5816 5815 5815 5815 5815 5815 5815 5815 5816 5816 5816 5817 5817 5817 5818 5818 5818 5819 5819 5820 5821 5821 5822 5822 5823 5824 5826 5827 5827 5827 5827 5828 5829 5829 5829 5830 5832 5833 5834 5835 5838 5840 5842 5843 5843 5843 5844 5845 5845 5846 5847 5848 5849 5849 5849 5850 5851 5853 5854 5855 5855 5856
5808 5809 5809 5811 5811 5811 5812 5813 5814 5815 5815 5815 5815 5815 5815 5815 5815 5815 5815 5815 5815 5815 5814 5814 5813 5813 5812 5812 5813 5812 5813 5813 5814 5814 5815 5815 5816 5816 5816 5816 5817 5817 5818 5819 5819 5820 5821 5821 5823 5824 5824 5825 5825 5826 5826 5827 5828 5828 5829 5830 5831 5831 5832 5835 5838 5840 5841 5841 5842 5842 5843 5844 5845 5846 5846 5847 5848 5848 5849 5850 5851 5852 5853 5854 5855
5802 5805 5806 5807 5809 5809 5810 5810 5811 5812 5812 5812 5812 5813 5813 5813 5813 5813 5814 5813 5813 5812 5812 5812 5812 5811 5810 5810 5811 5810 5811 5811 5812 5812 5813 5813 5813 5814 5815 5815 5815 5816 5816 5817 5818 5819 5819 5820 5821 5822 5822 5823 5823 5824 5825 5825 5826 5827 5827 5828 5828 5828 5829 5833 5836 5838 5839 5839 5840 5840 5841 5842 5843 5844 5844 5845 5846 5847 5848 5848 5849 5851 5852 5853 5854
5795 5799 5801 5803 5805 5806 5807 5807 5808 5809 5810 5810 5810 5811 5811 5811 5811 5811 5811 5811 5811 5810 5810 5810 5810 5809 5809 5809 5809 5809 5809 5809 5810 5811 5811 5811 5811 5812 5813 5814 5814 5814 5815 5816 5817 5817 5818 5818 5819 5820 5820 5821 5822 5823 5823 5824 5824 5825 5826 5826 5826 5826 5827 5830 5833 5836 5837 5837 5837 5837 5839 5840 5841 5841 5843 5844 5845 5845 5846 5847 5848 5849 5850 5851 5852
5792 5792 5796 5798 5802 5803 5804 5805 5805 5807 5808 5808 5808 5808 5809 5809 5809 5809 5809 5809 5809 5808 5808 5808 5808 5807 5807 5808 5808 5807 5807 5808 5808 5809 5809 5809 5810 5810 5811 5812 5813 5813 5814 5814 5815 5816 5816 5816 5817 5818 5818 5819 5820 5821 5821 5822 5822 5823 5823 5824 5824 5824 5824 5827 5830 5833 5834 5835 5835 5835 5836 5837 5838 5839 5841 5842 5843 5843 5844 5845 5846 5847 5848 5849 5851
5791 5790 5793 5795 5798 5800 5801 5802 5803 5805 5805 5805 5805 5805 5806 5807 5807 5806 5806 5806 5807 5806 5805 5805 5805 5806 5805 5805 5805 5805 5806 5806 5807 5807 5807 5808 5808 5809 5810 5811 5812 5812 5813 5813 5814 5814 5815 5815 5815 5816 5817 5817 5818 5819 5819 5820 5820 5821 5821 5822 5821 5821 5822 5824 5827 5830 5832 5832 5833 5834 5834 5835 5836 5837 5839 5840 5841 5841 5842 5843 5844 5845 5847 5848 5849
5790 5788 5790 5792 5795 5797 5798 5799 5800 5802 5803 5803 5802 5802 5804 5804 5804 5804 5803 5804 5804 5804 5803 5802 5803 5804 5803 5802 5802 5803 5803 5804 5804 5804 5805 5806 5806 5807 5809 5810 5810 5811 5812 5812 5812 5812 5813 5813 5814 5814 5815 5815 5816 5817 5817 5818 5819 5819 5820 5820 5819 5819 5820 5822 5824 5827 5829 5829 5830 5831 5831 5833 5834 5835 5836 5838 5839 5839 5840 5841 5842 5844 5845 5846 5847
5790 5787 5789 5792 5793 5795 5796 5797 5798 5800 5800 5800 5800 5800 5801 5801 5801 5801 5801 5801 5801 5801 5800 5800 5800 5801 5800 5799 5799 5800 5801 5802 5801 5800 5801 5803 5804 5805 5807 5808 5809 5810 5810 5811 5811 5811 5811 5811 5812 5813 5813 5814 5814 5814 5815 5815 5816 5817 5818 5818 5817 5817 5818 5819 5822 5824 5825 5826 5827 5828 5829 5830 5831 5832 5834 5835 5837 5837 5838 5839 5840 5841 5843 5844 5845
5790 5788 5790 5791 5792 5793 5794 5795 5797 5798 5798 5798 5797 5797 5798 5799 5799 5798 5798 5798 5798 5799 5798 5797 5797 5798 5798 5796 5796 5798 5799 5800 5799 5798 5799 5801 5802 5804 5805 5806 5807 5808 5808 5809 5810 5810 5810 5810 5811 5812 5812 5812 5812 5812 5812 5813 5814 5815 5815 5815 5815 5815 5815 5817 5819 5821 5822 5823 5825 5826 5827 5828 5828 5829 5831 5833 5835 5836 5836 5837 5838 5839 5840 5841 5843
5791 5790 5790 5790 5790 5792 5793 5794 5796 5796 5796 5796 5795 5794 5795 5796 5797 5797 5797 5796 5796 5796 5796 5795 5795 5796 5796 5794 5795 5797 5797 5798 5798 5798 5799 5800 5801 5803 5804 5805 5805 5806 5807 5808 5809 5809 5809 5810 5810 5811 5811 5811 5811 5810 5810 5811 5812 5812 5813 5813 5813 5814 5814 5815 5816 5818 5819 5821 5823 5825 5826 5826 5827 5828 5829 5830 5832 5834 5834 5835 5836 5837 5838 5839 5840
5791 5789 5788 5788 5789 5790 5791 5793 5794 5794 5794 5793 5792 5792 5792 5793 5793 5794 5795 5794 5794 5794 5794 5793 5793 5794 5793 5792 5794 5794 5793 5794 5796 5797 5798 5799 5800 5802 5803 5803 5804 5805 5806 5807 5807 5807 5808 5808 5809 5809 5810 5809 5809 5809 5809 5809 5810 5810 5811 5811 5812 5812 5812 5812 5814 5816 5817 5819 5821 5823 5824 5825 5826 5826 5827 5828 5829 5831 5832 5833 5834 5835 5836 5837 5838
5787 5786 5785 5785 5786 5787 5788 5790 5792 5792 5792 5792 5791 5791 5790 5789 5789 5790 5791 5792 5792 5792 5792 5791 5791 5791 5791 5792 5792 5791 5790 5792 5794 5796 5798 5799 5799 5800 5801 5802 5803 5804 5805 5805 5805 5806 5806 5806 5806 5807 5808 5808 5807 5807 5807 5808 5808 5808 5809 5809 5810 5810 5811 5810 5811 5813 5815 5817 5819 5821 5822 5823 5824 5824 5825 5826 5827 5828 5829 5830 5831 5833 5834 5835 5835
5786 5784 5782 5782 5782 5783 5784 5785 5787 5789 5789 5789 5790 5790 5790 5789 5788 5788 5788 5789 5790 5790 5790 5789 5789 5789 5789 5790 5790 5790 5790 5790 5793 5795 5797 5797 5798 5799 5800 5801 5802 5802 5802 5802 5803 5803 5803 5803 5804 5804 5805 5805 5806 5805 5806 5806 5805 5806 5807 5807 5808 5808 5809 5809 5809 5810 5812 5815 5816 5818 5820 5821 5822 5822 5823 5824 5825 5826 5827 5828 5829 5830 5831 5832 5833
5786 5785 5783 5782 5782 5782 5782 5783 5783 5784 5785 5785 5786 5787 5788 5788 5787 5787 5786 5787 5787 5787 5787 5787 5787 5787 5787 5788 5789 5789 5789 5789 5790 5791 5793 5794 5795 5796 5798 5798 5799 5799 5800 5800 5800 5800 5801 5801 5801 5801 5802 5802 5803 5804 5804 5804 5804 5804 5805 5805 5806 5806 5806 5807 5807 5808 5809 5811 5814 5815 5817 5819 5819 5820 5822 5823 5823 5824 5825 5826 5826 5827 5828 5830 5831
5786 5785 5784 5783 5783 5783 5783 5783 5783 5783 5783 5783 5783 5784 5785 5786 5786 5786 5784 5784 5784 5783 5784 5784 5784 5784 5785 5785 5786 5787 5788 5787 5786 5787 5788 5791 5792 5794 5795 5796 5796 5796 5796 5797 5797 5798 5798 5798 5799 5799 5799 5800 5801 5801 5802 5802 5802 5803 5803 5804 5804 5804 5804 5804 5805 5806 5807 5808 5810 5812 5814 5815 5816 5817 5819 5820 5821 5822 5823 5824 5824 5825 5826 5827 5828
5784 5783 5783 5783 5783 5783 5783 5783 5783 5782 5782 5782 5782 5782 5783 5783 5784 5785 5784 5783 5782 5781 5781 5780 5781 5781 5782 5783 5783 5784 5785 5785 5785 5786 5788 5789 5790 5792 5792 5793 5793 5794 5794 5794 5795 5795 5796 5796 5797 5797 5797 5798 5798 5799 5799 5800 5800 5801 5801 5802 5802 5802 5802 5802 5803 5803 5805 5806 5807 5809 5811 5812 5813 5814 5816 5818 5819 5819 5820 5821 5822 5823 5823 5824 5825
5782 5782 5782 5783 5783 5783 5783 5782 5782 5782 5782 5781 5780 5780 5781 5781 5781 5782 5783 5783 5782 5781 5780 5779 5778 5779 5780 5781 5782 5782 5783 5783 5783 5785 5787 5788 5789 5790 5791 5791 5792 5792 5793 5793 5793 5794 5794 5795 5795 5795 5795 5796 5796 5796 5797 5798 5798 5798 5799 5799 5799 5799 5799 5800 5801 5802 5802 5804 5805 5806 5807 5809 5810 5811 5812 5814 5815 5815 5817 5818 5819 5820 5821 5821 5822
5780 5780 5781 5782 5782 5782 5782 5782 5781 5782 5781 5780 5779 5779 5778 5779 5779 5779 5780 5781 5781 5781 5780 5779 5778 5778 5778 5778 5779 5779 5780 5780 5780 5781 5783 5785 5787 5788 5789 5789 5790 5790 5791 5791 5792 5792 5793 5793 5793 5793 5794 5794 5794 5794 5795 5795 5796 5796 5796 5796 5796 5797 5797 5797 5799 5800 5800 5801 5802 5803 5804 5805 5806 5807 5808 5810 5811 5812 5813 5814 5816 5817 5818 5818 5819
5779 5779 5779 5780 5780 5781 5780 5780 5780 5780 5780 5779 5778 5778 5777 5776 5776 5776 5776 5777 5778 5778 5778 5778 5777 5777 5776 5776 5776 5776 5776 5777 5778 5779 5780 5783 5784 5785 5786 5787 5787 5788 5789 5789 5790 5790 5790 5791 5791 5791 5792 5792 5792 5792 5792 5793 5794 5794 5794 5794 5794 5794 5795 5795 5796 5797 5798 5799 5800 5800 5801 5802 5803 5803 5805 5806 5807 5808 5809 5810 5811 5813 5814 5815 5816
5777 5777 5778 5778 5779 5779 5779 5779 5779 5779 5779 5779 5778 5777 5776 5775 5774 5774 5773 5773 5775 5775 5775 5775 5775 5775 5774 5774 5774 5774 5775 5775 5776 5777 5779 5780 5782 5783 5784 5785 5785 5786 5786 5786 5787 5787 5788 5788 5789 5789 5789 5789 5789 5790 5790 5791 5792 5792 5792 5792 5791 5792 5792 5793 5794 5795 5795 5796 5797 5797 5797 5798 5799 5800 5801 5802 5802 5803 5804 5806 5808 5809 5810 5811 5813
5775 5776 5776 5776 5777 5777 5777 5777 5777 5778 5778 5777 5776 5775 5775 5774 5773 5773 5772 5772 5772 5773 5773 5773 5773 5773 5773 5773 5773 5773 5773 5773 5774 5775 5776 5778 5779 5780 5781 5782 5782 5783 5783 5784 5784 5785 5785 5786 5786 5786 5787 5787 5787 5788 5788 5789 5789 5790 5790 5790 5790 5790 5790 5791 5792 5792 5792 5793 5793 5794 5794 5794 5795 5796 5797 5797 5798 5798 5799 5802 5804 5805 5806 5808 5810
5773 5774 5774 5775 5775 5775 5774 5774 5775 5776 5775 5775 5774 5773 5773 5773 5772 5772 5772 5771 5771 5771 5771 5771 5771 5771 5771 5771 5771 5772 5772 5772 5772 5773 5774 5775 5776 5777 5778 5778 5779 5780 5781 5781 5781 5782 5783 5783 5784 5784 5784 5784 5785 5785 5785 5786 5787 5787 5787 5788 5788 5788 5788 5789 5789 5789 5790 5790 5790 5790 5791 5791 5792 5792 5792 5793 5793 5793 5794 5797 5800 5801 5803 5805 5806
5771 5771 5772 5772 5772 5772 5771 5772 5773 5773 5773 5772 5771 5771 5771 5771 5770 5770 5770 5770 5769 5769 5769 5769 5769 5770 5770 5770 5770 5770 5770 5770 5771 5771 5772 5772 5773 5774 5775 5775 5776 5776 5777 5778 5778 5779 5780 5780 5781 5781 5781 5781 5782 5782 5783 5784 5784 5785 5785 5785 5785 5785 5785 5786 5786 5786 5787 5787 5787 5787 5788 5788 5788 5788 5789 5789 5790 5789 5790 5793 5795 5797 5799 5801 5803
5767 5768 5768 5768 5768 5768 5768 5769 5770 5770 5770 5769 5769 5769 5769 5769 5768 5767 5768 5768 5767 5768 5768 5767 5767 5767 5768 5768 5768 5768 5768 5768 5769 5769 5770 5770 5771 5771 5772 5772 5773 5773 5774 5775 5776 5776 5777 5777 5778 5778 5779 5779 5779 5780 5780 5781 5781 5781 5782 5782 5782 5782 5782 5783 5783 5783 5784 5784 5784 5785 5785 5785 5785 5784 5785 5785 5786 5786 5786 5788 5791 5793 5795 5797 5799
5764 5763 5764 5765 5765 5764 5765 5765 5766 5767 5768 5767 5766 5767 5767 5767 5766 5765 5765 5765 5765 5765 5766 5765 5765 5765 5765 5766 5766 5766 5766 5766 5767 5767 5768 5768 5768 5769 5769 5770 5770 5771 5771 5772 5773 5774 5774 5774 5775 5775 5776 5777 5777 5777 5777 5778 5778 5778 5779 5779 5779 5779 5779 5779 5779 5779 5780 5780 5781 5781 5781 5781 5781 5781 5781 5781 5782 5783 5783 5785 5787 5789 5790 5792 5795
5761 5760 5761 5762 5763 5762 5762 5762 5764 5765 5765 5765 5764 5764 5765 5766 5765 5764 5763 5763 5763 5762 5763 5763 5763 5763 5763 5763 5764 5764 5764 5764 5764 5765 5765 5766 5766 5766 5767 5767 5768 5768 5768 5769 5770 5771 5771 5772 5772 5773 5773 5774 5774 5775 5775 5775 5775 5775 5776 5776 5776 5777 5777 5776 5776 5776 5776 5777 5777 5777 5778 5778 5778 5778 5778 5778 5779 5780 5781 5782 5783 5785 5787 5788 5790
5758 5758 5759 5760 5761 5761 5760 5760 5761 5762 5762 5762 5762 5762 5763 5764 5763 5762 5761 5761 5760 5760 5760 5760 5760 5761 5761 5761 5761 5761 5761 5762 5762 5762 5763 5763 5764 5764 5764 5765 5765 5765 5766 5767 5767 5768 5769 5769 5770 5770 5771 5771 5771 5772 5772 5772 5772 5772 5772 5773 5773 5773 5774 5773 5773 5773 5773 5773 5773 5774 5774 5774 5774 5775 5775 5775 5776 5777 5778 5779 5780 5781 5783 5784 5785
5755 5756 5756 5758 5759 5760 5759 5759 5759 5759 5759 5759 5759 5760 5761 5762 5762 5761 5760 5759 5759 5758 5758 5758 5758 5758 5758 5758 5759 5759 5759 5759 5759 5760 5760 5761 5761 5761 5762 5762 5763 5763 5764 5764 5765 5765 5766 5766 5767 5767 5768 5768 5768 5769 5769 5769 5768 5769 5769 5769 5769 5770 5770 5770 5770 5770 5770 5770 5770 5770 5771 5771 5772 5772 5772 5773 5773 5774 5774 5775 5776 5777 5778 5780 5781
5752 5753 5754 5755 5756 5757 5757 5756 5756 5755 5755 5755 5756 5757 5759 5760 5761 5760 5758 5757 5757 5756 5756 5755 5755 5755 5756 5756 5756 5756 5757 5757 5757 5757 5758 5758 5759 5759 5759 5760 5760 5760 5761 5762 5762 5763 5764 5764 5764 5765 5765 5765 5765 5766 5766 5766 5766 5766 5766 5766 5766 5766 5766 5767 5767 5767 5767 5767 5767 5767 5768 5768 5768 5769 5770 5770 5771 5771 5771 5772 5772 5773 5774 5775 5776
5750 5750 5751 5751 5753 5754 5754 5754 5753 5753 5752 5752 5753 5754 5756 5758 5759 5759 5757 5756 5755 5754 5753 5753 5753 5753 5753 5753 5754 5754 5754 5755 5755 5755 5756 5756 5756 5757 5757 5757 5758 5758 5759 5759 5760 5760 5761 5761 5762 5762 5762 5762 5762 5762 5763 5763 5763 5763 5763 5763 5763 5764 5764 5764 5764 5764 5764 5764 5764 5764 5764 5765 5765 5766 5767 5767 5768 5768 5768 5769 5769 5770 5771 5771 5772